Location: Newark
(22.3060°N, 114.2134°E)
Time: 07:06:11
(UTC+00:00)

Vanguard 2 - Pass Details

Date: 10 August 2021
Orbit: 553 x 2937 km, 32.9° (Epoch: 24 September)

Event Time Altitude Azimuth Distance (km) Brightness Sun altitude
Rises 14:23:08 0° 219° (SW) 5,686 11.9 -41.4°
Enters shadow 14:26:08 - 215° (SW) 4,796 11.4 -41.9°
Reaches altitude 10° 14:27:53 10° 212° (SSW) 4,270 - -42.1°
Maximum altitude 14:37:08 34° 153° (SSE) 2,041 - -43.5°
Drops below altitude 10° 14:43:06 10° 90° (E) 2,728 - -44.3°
Sets 14:45:27 0° 80° (E) 3,436 - -44.7°
